Flag for Brazil Weather past 2 weeks in Joinville, Santa Catarina, Brazil

Now
57 °F

Fog.


Feels Like: 57 °F
Forecast: 57 / 73 °F
Wind: 3 mph from Northeast

Location: Curitiba Aeroporto

Current Time: Sep 24, 2014 at 1:32:29 AM

Latest Report: Sep 24, 2014 at 1:00 AM


Visibility: 0 mi

Pressure: N/A

Humidity: 100%

Dew point: 57 °F

Location of JoinvilleLocation

Historic Weather in Joinville — Graph

°F

Joinville temperature yesterday

Maximum temperature yesterday: 75 °F (at 2:00 PM)
Minimum temperature yesterday: 50 °F (at 6:00 AM)
Average temperature yesterday: 60 °F

Past Weeks' High & Low Weather Summary

 TemperatureHumidityPressure
High82 °F (Sep 10, 4:00 PM)100% (Sep 9, 12:00 AM)30.27 "Hg (Sep 9, 12:00 AM)
Low39 °F (Sep 19, 6:00 AM)25% (Sep 13, 4:00 PM)29.92 "Hg (Sep 19, 5:00 PM)
Average62 °F83%30.11 "Hg
* Reported Midnight between Sep 8 and Sep 9 — Midnight between Sep 23 and Sep 24, Joinville, Weather by CustomWeather, © 2014

Note: Actual official high and low records may vary slightly from our data, if they occured in-between our weather recording intervals... More about our weather records

Advertising

Joinville weather history for previous 24 hours

 ConditionsComfort  
Time TempWeatherWind HumidityBarometerVisibility
12:00 AM
Sep 24
59 °FFog.6 mph100%30.09 "Hg1 mi
11:00 PM
Sep 23
59 °FFog.6 mph100%N/A3 mi
10:00 PM59 °FMostly cloudy.7 mph100%30.12 "Hg5 mi
9:00 PM59 °FPartly cloudy.6 mph100%30.09 "HgN/A
8:00 PM57 °FPassing clouds.3 mph100%30.09 "HgN/A
7:00 PM59 °FPassing clouds.6 mph100%30.07 "HgN/A
6:00 PM63 °FPassing clouds.9 mph88%30.07 "HgN/A
5:00 PM68 °FPassing clouds.14 mph78%30.07 "HgN/A
4:00 PM70 °FPassing clouds.9 mph73%30.04 "HgN/A
3:00 PM72 °FPassing clouds.13 mph69%30.07 "HgN/A
2:00 PM75 °FPassing clouds.9 mph50%30.09 "HgN/A
1:00 PM72 °FPassing clouds.5 mph61%30.12 "HgN/A
12:00 PM70 °FPassing clouds.3 mph60%30.15 "HgN/A
11:00 AM68 °FScattered clouds.5 mph64%30.18 "HgN/A
10:00 AM63 °FScattered clouds.3 mph73%30.18 "HgN/A
9:00 AM59 °FBroken clouds.6 mph82%30.21 "HgN/A
8:00 AM55 °FMostly cloudy.6 mph88%30.18 "HgN/A
7:00 AM52 °FPartly sunny.5 mph94%30.18 "HgN/A
6:00 AM50 °FBroken clouds.3 mph100%30.15 "HgN/A
5:00 AM52 °FPartly cloudy.8 mph94%30.15 "HgN/A
4:00 AM52 °FPartly cloudy.2 mph94%30.15 "HgN/A
3:00 AM52 °FPartly cloudy.8 mph94%30.12 "HgN/A
2:00 AM54 °FPartly cloudy.12 mph88%30.18 "HgN/A
1:00 AM54 °FPartly cloudy.8 mph88%30.18 "HgN/A
Weather by CustomWeather, © 2014

See weather overviewHow to use our weather pages